Weather History for KILG - August, 2014

Change the Weather History Date:

Tuesday, August 5, 2014

  Actual Average Record
Temperature  
Mean Temperature 76 °F 76 °F  
Max Temperature 88 °F 85 °F 101 °F (1896)
Min Temperature 64 °F 67 °F 49 °F (1951)
Degree Days  
Heating Degree Days 0 0  
Month to date heating degree days 0 0  
Since 1 June heating degree days 2 15  
Since 1 July heating degree days 0 0  
Cooling Degree Days 11 11  
Month to date cooling degree days 47 57  
Year to date cooling degree days 706 734  
Since 1 June cooling degree days 639 655  
Growing Degree Days 25 (Base 50)    
Moisture  
Dew Point 64 °F    
Average Humidity 71    
Maximum Humidity 100    
Minimum Humidity 42    
Precipitation  
Precipitation 0.00 in 0.12 in 2.66 in (1987)
Month to date precipitation 0.88 0.60  
Year to date precipitation 34.18 26.11  
Snow  
Snow 0.00 in 0.00 in 0.00 in (1894)
Month to date snowfall 0.0 0.0  
Since 1 June snowfall 0.0 0.0  
Since 1 July snowfall 0.0 0.0  
Snow Depth 0.00 in    
Sea Level Pressure  
Sea Level Pressure 30.01 in    
Wind  
Wind Speed 5 mph (WNW)    
Max Wind Speed 14 mph    
Max Gust Speed 19 mph    
Visibility 10 miles    
Events      
T = Trace of Precipitation, MM = Missing Value Source: NWS Daily Summary

Daily Weather History Graph

Daily Weather History Graph

Search for Another Location

Airport or City:

Trip Planner

Search our weather history database for the weather conditions in past years. The results will help you decide how hot, cold, wet, or windy it might be!

Date:

Astronomy

Aug. 05, 2014 Rise Set
Actual Time 6:05 AM EDT 8:10 PM EDT
Civil Twilight 5:35 AM EDT 8:40 PM EDT
Nautical Twilight 4:59 AM EDT 9:16 PM EDT
Astronomical Twilight 4:19 AM EDT 9:56 PM EDT
Moon 3:23 PM EDT (8/5) 12:51 AM EDT (8/5)
Length of Visible Light 15h 05m
Length of Day
14h 05m
Waxing Gibbous, 67% of the Moon is Illuminated
Aug 5
Waxing Gibbous
Aug 10
Full
Aug 17
Last Quarter
Aug 25
New
Sep 2
First Quarter

Hourly Weather History & Observations

Time (EDT) Temp. Heat Index Dew Point Humidity Pressure Visibility Wind Dir Wind Speed Gust Speed Precip Events Conditions
1:51 AM 69.8 °F - 66.2 °F 88% 30.06 in 10.0 mi SSW 3.5 mph - N/A   Clear
2:51 AM 68.0 °F - 64.9 °F 90% 30.06 in 10.0 mi WNW 4.6 mph - N/A   Clear
3:51 AM 66.9 °F - 64.9 °F 93% 30.06 in 10.0 mi NW 3.5 mph - N/A   Clear
4:51 AM 64.4 °F - 64.4 °F 100% 30.05 in 10.0 mi NW 3.5 mph - N/A   Clear
5:51 AM 64.9 °F - 63.0 °F 93% 30.06 in 10.0 mi NW 5.8 mph - N/A   Clear
6:51 AM 66.9 °F - 64.0 °F 90% 30.07 in 10.0 mi NW 4.6 mph - N/A   Clear
7:51 AM 71.1 °F - 64.9 °F 81% 30.07 in 10.0 mi NW 4.6 mph - N/A   Clear
8:51 AM 75.9 °F - 66.0 °F 71% 30.06 in 10.0 mi NNW 3.5 mph - N/A   Clear
9:51 AM 81.0 °F 82.7 °F 64.9 °F 58% 30.06 in 10.0 mi NNW 4.6 mph - N/A   Clear
10:51 AM 82.4 °F 83.4 °F 62.6 °F 51% 30.06 in 10.0 mi WNW 4.6 mph - N/A   Clear
11:51 AM 84.9 °F 86.1 °F 64.0 °F 49% 30.04 in 10.0 mi NE 5.8 mph - N/A   Partly Cloudy
12:51 PM 84.0 °F 84.9 °F 63.0 °F 49% 30.02 in 10.0 mi Calm Calm - N/A   Mostly Cloudy
1:51 PM 86.0 °F 86.3 °F 62.1 °F 44% 30.00 in 10.0 mi ENE 5.8 mph - N/A   Scattered Clouds
2:51 PM 86.0 °F 86.1 °F 61.0 °F 43% 29.98 in 10.0 mi Calm Calm - N/A   Clear
3:51 PM 86.0 °F 86.8 °F 63.0 °F 46% 29.95 in 10.0 mi SSE 8.1 mph - N/A   Partly Cloudy
4:51 PM 86.0 °F 86.8 °F 63.0 °F 46% 29.94 in 10.0 mi SSW 5.8 mph - N/A   Clear
5:51 PM 84.0 °F 84.9 °F 63.0 °F 49% 29.94 in 10.0 mi South 6.9 mph - N/A   Clear
6:51 PM 84.0 °F 84.9 °F 63.0 °F 49% 29.94 in 10.0 mi SW 6.9 mph - N/A   Clear
7:51 PM 81.0 °F 83.0 °F 66.0 °F 60% 29.94 in 10.0 mi SW 5.8 mph - N/A   Clear
8:51 PM 78.1 °F - 66.0 °F 66% 29.94 in 10.0 mi West 5.8 mph - N/A   Clear
9:51 PM 75.9 °F - 66.9 °F 74% 29.94 in 10.0 mi West 6.9 mph - N/A   Clear
10:51 PM 73.9 °F - 66.9 °F 79% 29.94 in 10.0 mi West 5.8 mph - N/A   Clear
11:51 PM 73.0 °F - 64.0 °F 73% 29.94 in 10.0 mi NNW 6.9 mph - N/A   Partly Cloudy